Weather History for Lexington, NE

Change the Weather History Date:

Saturday, December 22, 2012

  Actual Average Record
Temperature  
Mean Temperature 24 °F -  
Max Temperature 43 °F 36 °F 48 °F (2005)
Min Temperature 6 °F 13 °F -16 °F (1998)
Degree Days  
Heating Degree Days 40    
Moisture  
Dew Point 17 °F    
Average Humidity 78    
Maximum Humidity 91    
Minimum Humidity 48    
Precipitation  
Precipitation 0.00 in - - ()
Sea Level Pressure  
Sea Level Pressure 29.98 in    
Wind  
Wind Speed 6 mph (NW)    
Max Wind Speed 15 mph    
Max Gust Speed -    
Visibility 9 miles    
Events      
Averages and records for this station are not official NWS values.
T = Trace of Precipitation, MM = Missing Value Source: NWS Daily Summary

Daily Weather History Graph

Daily Weather History Graph

Search for Another Location

Airport:

Trip Planner

Search our weather history database for the weather conditions in past years. The results will help you decide how hot, cold, wet, or windy it might be!

Date:

Astronomy

Dec. 22, 2012 Rise Set
Actual Time 8:00 AM CST 5:15 PM CST
Civil Twilight 7:29 AM CST 5:46 PM CST
Nautical Twilight 6:55 AM CST 6:21 PM CST
Astronomical Twilight 6:21 AM CST 6:54 PM CST
Moon 1:34 PM CST (12/22) 2:46 AM CST (12/22)
Length of Visible Light 10h 16m
Length of Day
9h 14m
Waxing Gibbous, 74% of the Moon is Illuminated
Dec 22
Waxing Gibbous
Dec 28
Full
Jan 4
Last Quarter
Jan 11
New
Jan 18
First Quarter

Hourly Weather History & Observations

Time (CST) Temp. Windchill Dew Point Humidity Pressure Visibility Wind Dir Wind Speed Gust Speed Precip Events Conditions
12:15 AM 17.4 °F - 14.5 °F 88% 30.06 in 10.0 mi Calm Calm - N/A   Clear
12:35 AM 12.0 °F - 9.5 °F 90% 30.05 in 10.0 mi Calm Calm - N/A   Clear
12:55 AM 9.5 °F - 6.8 °F 89% 30.04 in 10.0 mi Calm Calm - N/A   Clear
1:15 AM 9.1 °F - 7.0 °F 91% 30.04 in 10.0 mi Calm Calm - N/A   Clear
1:35 AM 8.2 °F -0.3 °F 6.1 °F 91% 30.04 in 10.0 mi NW 4.6 mph - N/A   Clear
1:55 AM 9.0 °F - 6.6 °F 90% 30.03 in 10.0 mi Calm Calm - N/A   Clear
2:15 AM 12.2 °F 6.1 °F 10.0 °F 91% 30.04 in 7.0 mi West 3.5 mph - N/A   Clear
2:35 AM 9.1 °F 2.6 °F 5.9 °F 87% 30.03 in 10.0 mi WSW 3.5 mph - N/A   Clear
2:55 AM 9.1 °F 2.6 °F 6.6 °F 89% 30.03 in 7.0 mi WSW 3.5 mph - N/A   Clear
3:15 AM 7.3 °F 0.5 °F 4.8 °F 89% 30.02 in 1.0 mi WNW 3.5 mph - N/A   Mist
3:35 AM 6.1 °F -2.8 °F 3.4 °F 89% 30.00 in 2.5 mi WNW 4.6 mph - N/A   Clear
3:55 AM 7.3 °F -2.8 °F 4.5 °F 88% 30.00 in 5.0 mi West 5.8 mph - N/A   Clear
4:15 AM 6.3 °F -4.1 °F 3.2 °F 87% 29.98 in 0.8 mi WNW 5.8 mph - N/A   Mist
4:35 AM 7.9 °F -3.5 °F 5.2 °F 89% 29.99 in 1.2 mi WNW 6.9 mph - N/A   Mist
4:55 AM 8.8 °F -2.4 °F 5.7 °F 87% 29.99 in 7.0 mi West 6.9 mph - N/A   Clear
5:15 AM 8.4 °F -2.8 °F 5.7 °F 89% 29.99 in 7.0 mi West 6.9 mph - N/A   Clear
5:35 AM 8.1 °F -0.5 °F 5.0 °F 87% 29.98 in 7.0 mi WNW 4.6 mph - N/A   Clear
6:15 AM 9.5 °F -1.5 °F 6.8 °F 89% 29.99 in 10.0 mi WNW 6.9 mph - N/A   Clear
6:35 AM 8.1 °F -4.3 °F 5.0 °F 87% 29.98 in 10.0 mi WNW 8.1 mph - N/A   Clear
6:55 AM 10.2 °F -1.7 °F 7.5 °F 89% 29.98 in 10.0 mi West 8.1 mph - N/A   Clear
7:15 AM 9.5 °F -0.3 °F 6.4 °F 87% 29.97 in 10.0 mi WNW 5.8 mph - N/A   Clear
7:35 AM 12.9 °F -0.2 °F 10.8 °F 91% 29.97 in 10.0 mi WNW 10.4 mph - N/A   Clear
7:55 AM 13.5 °F 1.3 °F 10.9 °F 90% 29.97 in 10.0 mi WNW 9.2 mph - N/A   Clear
8:15 AM 14.0 °F 1.2 °F 11.7 °F 90% 29.98 in 10.0 mi WNW 10.4 mph - N/A   Clear
8:35 AM 15.8 °F 5.1 °F 13.5 °F 90% 29.98 in 10.0 mi WNW 8.1 mph - N/A   Clear
8:55 AM 16.3 °F 4.1 °F 14.2 °F 91% 29.98 in 10.0 mi WNW 10.4 mph - N/A   Clear
9:15 AM 17.4 °F 4.7 °F 14.9 °F 90% 29.99 in 10.0 mi WNW 11.5 mph - N/A   Clear
9:35 AM 19.4 °F 7.2 °F 16.5 °F 89% 29.99 in 10.0 mi WNW 11.5 mph - N/A   Clear
9:55 AM 22.3 °F 11.5 °F 17.4 °F 82% 29.98 in 10.0 mi West 10.4 mph - N/A   Clear
10:15 AM 24.6 °F 14.4 °F 18.7 °F 78% 29.98 in 10.0 mi WNW 10.4 mph - N/A   Clear
10:35 AM 26.1 °F 16.2 °F 19.6 °F 76% 29.99 in 10.0 mi WNW 10.4 mph - N/A   Clear
10:55 AM 27.9 °F 19.8 °F 21.2 °F 76% 29.99 in 10.0 mi WNW 8.1 mph - N/A   Clear
11:15 AM 30.9 °F 23.5 °F 22.8 °F 72% 29.98 in 10.0 mi WNW 8.1 mph - N/A   Clear
11:35 AM 32.0 °F 21.6 °F 22.6 °F 68% 29.98 in 10.0 mi WNW 15.0 mph - N/A   Clear
11:55 AM 33.1 °F 24.4 °F 23.4 °F 67% 29.97 in 10.0 mi WNW 11.5 mph - N/A   Clear
12:15 PM 35.2 °F 27.1 °F 24.1 °F 64% 29.96 in 10.0 mi WNW 11.5 mph - N/A   Clear
12:35 PM 36.5 °F 28.7 °F 23.9 °F 60% 29.96 in 10.0 mi WNW 11.5 mph - N/A   Clear
12:55 PM 36.9 °F 29.6 °F 24.1 °F 60% 29.95 in 10.0 mi WNW 10.4 mph - N/A   Clear
1:15 PM 37.0 °F 29.8 °F 25.2 °F 62% 29.94 in 10.0 mi NW 10.4 mph - N/A   Clear
1:35 PM 37.9 °F 32.1 °F 25.9 °F 62% 29.93 in 10.0 mi WNW 8.1 mph - N/A   Clear
1:55 PM 39.2 °F 33.0 °F 26.6 °F 61% 29.93 in 10.0 mi WNW 9.2 mph - N/A   Clear
2:15 PM 40.1 °F 35.3 °F 28.0 °F 62% 29.93 in 10.0 mi WNW 6.9 mph - N/A   Clear
2:35 PM 39.7 °F 34.9 °F 29.5 °F 67% 29.92 in 10.0 mi NW 6.9 mph - N/A   Clear
2:55 PM 43.2 °F 37.4 °F 24.8 °F 48% 29.93 in 10.0 mi NNW 10.4 mph - N/A   Clear
3:15 PM 42.6 °F 37.2 °F 26.4 °F 53% 29.93 in 10.0 mi NW 9.2 mph - N/A   Clear
3:35 PM 41.7 °F 37.3 °F 26.4 °F 55% 29.94 in 10.0 mi NNW 6.9 mph - N/A   Clear
3:55 PM 40.3 °F 33.9 °F 26.6 °F 58% 29.95 in 10.0 mi NNW 10.4 mph - N/A   Clear
4:15 PM 38.8 °F 32.1 °F 26.8 °F 62% 29.95 in 10.0 mi North 10.4 mph - N/A   Clear
4:35 PM 39.0 °F 32.3 °F 25.3 °F 58% 29.95 in 10.0 mi NNW 10.4 mph - N/A   Clear
4:55 PM 37.6 °F 31.6 °F 25.5 °F 62% 29.96 in 10.0 mi NNW 8.1 mph - N/A   Clear
5:15 PM 37.0 °F 31.0 °F 25.0 °F 62% 29.97 in 10.0 mi NNW 8.1 mph - N/A   Clear
5:35 PM 35.1 °F 26.9 °F 25.0 °F 67% 29.97 in 10.0 mi North 11.5 mph - N/A   Clear
5:55 PM 33.8 °F 24.8 °F 24.6 °F 69% 29.96 in 10.0 mi North 12.7 mph - N/A   Clear
6:15 PM 33.4 °F 26.6 °F 24.4 °F 70% 29.97 in 10.0 mi North 8.1 mph - N/A   Clear
6:35 PM 30.9 °F 23.5 °F 23.7 °F 75% 29.97 in 10.0 mi North 8.1 mph - N/A   Clear
6:55 PM 29.7 °F 24.7 °F 23.4 °F 77% 29.98 in 10.0 mi North 4.6 mph - N/A   Clear
7:15 PM 30.2 °F 23.4 °F 23.0 °F 75% 29.98 in 10.0 mi North 6.9 mph - N/A   Clear
7:35 PM 27.3 °F - 22.3 °F 81% 29.98 in 10.0 mi Calm Calm - N/A   Clear
7:55 PM 27.5 °F 23.6 °F 22.1 °F 80% 29.99 in 10.0 mi NNW 3.5 mph - N/A   Clear
8:15 PM 27.0 °F 20.5 °F 21.6 °F 80% 29.99 in 10.0 mi NNW 5.8 mph - N/A   Clear
8:35 PM 26.2 °F 18.6 °F 20.5 °F 79% 29.99 in 10.0 mi North 6.9 mph - N/A   Clear
8:55 PM 25.9 °F 19.2 °F 19.9 °F 78% 30.00 in 10.0 mi NNW 5.8 mph - N/A   Clear
9:15 PM 23.4 °F 17.4 °F 18.1 °F 80% 30.00 in 10.0 mi NNW 4.6 mph - N/A   Clear
9:35 PM 25.3 °F 17.6 °F 19.0 °F 77% 29.99 in 10.0 mi NNE 6.9 mph - N/A   Clear
9:55 PM 26.1 °F 20.5 °F 19.2 °F 75% 29.99 in 10.0 mi NNE 4.6 mph - N/A   Clear
10:15 PM 23.4 °F 16.2 °F 17.6 °F 79% 29.99 in 10.0 mi North 5.8 mph - N/A   Clear
10:35 PM 21.6 °F 10.6 °F 16.7 °F 82% 29.99 in 10.0 mi North 10.4 mph - N/A   Clear
10:55 PM 23.7 °F 13.3 °F 18.3 °F 80% 29.98 in 10.0 mi NNE 10.4 mph - N/A   Clear
11:15 PM 21.0 °F 14.6 °F 16.3 °F 82% 29.99 in 10.0 mi NNE 4.6 mph - N/A   Clear
11:35 PM 19.8 °F 14.7 °F 15.3 °F 83% 29.99 in 10.0 mi West 3.5 mph - N/A   Clear
11:55 PM 16.5 °F 6.9 °F 13.5 °F 88% 30.00 in 10.0 mi WNW 6.9 mph - N/A   Clear